START_TIME,STEP,MOV.,M6,t_acc.,M7,t_acc.,M19,t_acc.,H36,t_acc.
1979-03-02 15:00:16.570 ,2,1,0.,12.0,0.,12.0,0.,12.0,0.,12.0
1979-03-02 15:00:28.570 ,2,1,1.,12.0,0.,12.0,0.,12.0,0.,12.0
1979-03-02 15:00:40.570 ,1,1,0.,12.0,0.,12.0,0.,12.0,0.,12.0
1979-03-02 15:00:52.570 ,1,1,0.,12.0,0.,12.0,0.,12.0,0.,12.0
1979-03-02 15:01:04.570 ,0,1,0.,12.0,0.,12.0,0.,12.0,0.,12.0
1979-03-02 15:01:16.570 ,0,1,1.,12.0,0.,12.0,0.,12.0,0.,12.0
1979-03-02 15:01:28.570 ,0,1,0.,12.0,0.,12.0,0.,12.0,0.,12.0
1979-03-02 15:01:40.570 ,0,1,0.,12.0,0.,12.0,0.,12.0,0.,12.0
1979-03-02 15:01:52.570 ,1,1,0.,12.0,0.,12.0,0.,12.0,0.,12.0
1979-03-02 15:02:04.570 ,1,1,0.,12.0,0.,12.0,0.,12.0,0.,12.0
1979-03-02 15:02:16.570 ,2,1,0.,12.0,0.,12.0,0.,12.0,0.,12.0
1979-03-02 15:02:28.570 ,2,1,0.,12.0,0.,12.0,0.,12.0,0.,12.0
1979-03-02 15:02:40.570 ,3,1,0.,12.0,0.,12.0,0.,12.0,0.,12.0
1979-03-02 15:02:52.570 ,3,1,0.,12.0,0.,12.0,0.,12.0,0.,12.0
1979-03-02 15:03:04.570 ,4,1,0.,12.0,0.,12.0,0.,12.0,0.,12.0
1979-03-02 15:03:16.570 ,4,1,0.,12.0,0.,12.0,0.,12.0,0.,12.0
1979-03-02 15:03:28.570 ,5,1,1.,12.0,0.,12.0,0.,12.0,0.,12.0
1979-03-02 15:03:40.570 ,5,1,0.,12.0,0.,12.0,0.,12.0,0.,12.0
1979-03-02 15:03:52.570 ,6,1,0.,12.0,0.,12.0,0.,12.0,0.,12.0
1979-03-02 15:04:04.570 ,6,1,0.,12.0,0.,12.0,0.,12.0,0.,12.0
1979-03-02 15:04:16.570 ,7,1,0.,12.0,0.,12.0,0.,12.0,0.,12.0
1979-03-02 15:04:28.570 ,7,1,0.,12.0,0.,12.0,0.,12.0,0.,12.0
1979-03-02 15:04:40.570 ,7,1,0.,12.0,0.,12.0,0.,12.0,0.,12.0
1979-03-02 15:04:52.570 ,7,1,0.,12.0,0.,12.0,0.,12.0,0.,12.0
1979-03-02 15:05:04.570 ,6,1,0.,12.0,0.,12.0,0.,12.0,0.,12.0
1979-03-02 15:05:16.570 ,6,1,0.,12.0,0.,12.0,0.,12.0,0.,12.0
1979-03-02 15:05:28.570 ,5,1,0.,12.0,0.,12.0,0.,12.0,0.,12.0
1979-03-02 15:05:40.570 ,5,1,1.,12.0,0.,12.0,0.,12.0,0.,12.0
1979-03-02 15:05:52.570 ,4,1,0.,12.0,0.,12.0,0.,12.0,0.,12.0
1979-03-02 15:06:04.570 ,4,1,0.,12.0,0.,12.0,0.,12.0,0.,12.0
1979-03-02 15:06:16.570 ,3,1,0.,12.0,0.,12.0,0.,12.0,0.,12.0
1979-03-02 15:06:28.570 ,3,1,0.,12.0,0.,12.0,0.,12.0,0.,12.0
1979-03-02 15:06:40.570 ,2,1,0.,12.0,0.,12.0,0.,12.0,0.,12.0
1979-03-02 15:06:52.570 ,2,1,0.,12.0,0.,12.0,0.,12.0,0.,12.0
1979-03-02 15:07:04.570 ,1,1,0.,12.0,0.,12.0,0.,12.0,0.,12.0
1979-03-02 15:07:16.570 ,1,1,0.,12.0,0.,12.0,0.,12.0,0.,12.0
1979-03-02 15:07:28.570 ,0,1,0.,12.0,0.,12.0,0.,12.0,0.,12.0
1979-03-02 15:07:40.570 ,0,1,0.,12.0,0.,12.0,0.,12.0,0.,12.0
1979-03-02 15:07:52.570 ,0,1,0.,12.0,0.,12.0,0.,12.0,0.,12.0
1979-03-02 15:08:04.570 ,0,1,0.,12.0,0.,12.0,0.,12.0,0.,12.0
1979-03-02 15:08:16.570 ,1,1,0.,12.0,0.,12.0,0.,12.0,0.,12.0
1979-03-02 15:08:28.570 ,1,1,0.,12.0,0.,12.0,0.,12.0,0.,12.0
1979-03-02 15:08:40.570 ,2,1,0.,12.0,0.,12.0,0.,12.0,0.,12.0
1979-03-02 15:08:52.570 ,2,1,0.,12.0,0.,12.0,0.,12.0,0.,12.0
1979-03-02 15:09:04.570 ,3,1,0.,12.0,0.,12.0,0.,12.0,0.,12.0
1979-03-02 15:09:16.570 ,3,1,0.,12.0,0.,12.0,0.,12.0,0.,12.0
1979-03-02 15:09:28.570 ,4,1,0.,12.0,0.,12.0,0.,12.0,0.,12.0
1979-03-02 15:09:40.570 ,4,1,0.,12.0,0.,12.0,0.,12.0,0.,12.0
1979-03-02 15:09:52.570 ,5,1,0.,12.0,0.,12.0,0.,12.0,0.,12.0
1979-03-02 15:10:04.570 ,5,1,0.,12.0,0.,12.0,0.,12.0,0.,12.0
1979-03-02 15:10:16.570 ,6,1,0.,12.0,0.,12.0,0.,12.0,0.,12.0
1979-03-02 15:10:28.570 ,6,1,0.,12.0,0.,12.0,0.,12.0,0.,12.0
1979-03-02 15:10:40.570 ,7,1,0.,12.0,0.,12.0,0.,12.0,0.,12.0
1979-03-02 15:10:52.570 ,7,1,0.,12.0,0.,12.0,0.,12.0,0.,12.0
1979-03-02 15:11:04.570 ,7,1,0.,12.0,0.,12.0,0.,12.0,0.,12.0
1979-03-02 15:11:16.570 ,7,1,0.,12.0,0.,12.0,0.,12.0,0.,12.0
1979-03-02 15:11:28.570 ,6,1,0.,12.0,0.,12.0,0.,12.0,0.,12.0
1979-03-02 15:11:40.570 ,6,1,0.,12.0,0.,12.0,0.,12.0,0.,12.0
1979-03-02 15:11:52.570 ,5,1,0.,12.0,0.,12.0,0.,12.0,0.,12.0
1979-03-02 15:12:04.570 ,5,1,0.,12.0,0.,12.0,0.,12.0,0.,12.0
1979-03-02 15:12:16.570 ,4,1,0.,12.0,0.,12.0,0.,12.0,0.,12.0
1979-03-02 15:12:28.570 ,4,1,0.,12.0,0.,12.0,0.,12.0,0.,12.0
1979-03-02 15:12:40.570 ,3,1,0.,12.0,0.,12.0,0.,12.0,0.,12.0
1979-03-02 15:12:52.570 ,3,1,0.,12.0,0.,12.0,0.,12.0,0.,12.0
1979-03-02 15:13:04.570 ,0,0,0.,12.0,0.,12.0,0.,12.0,0.,12.0
1979-03-02 15:13:16.570 ,0,0,,0,,0,,0,,0
1979-03-02 15:13:09.370 ,2,1,,0,,0,,0,,0
1979-03-02 15:13:21.370 ,2,1,0.,12.0,0.,12.0,0.,12.0,0.,12.0
1979-03-02 15:13:28.570 ,1,1,0.,12.0,0.,12.0,0.,12.0,0.,12.0
1979-03-02 15:13:40.570 ,1,1,0.,12.0,0.,12.0,0.,12.0,0.,12.0
1979-03-02 15:13:52.570 ,0,1,1.,12.0,0.,12.0,0.,12.0,0.,12.0
1979-03-02 15:14:04.570 ,0,1,0.,12.0,0.,12.0,0.,12.0,0.,12.0
1979-03-02 15:14:16.570 ,0,1,1.,12.0,0.,12.0,0.,12.0,0.,12.0
1979-03-02 15:14:28.570 ,0,1,0.,12.0,0.,12.0,0.,12.0,0.,12.0
1979-03-02 15:14:40.570 ,1,1,,0,,0,,0,,0
1979-03-02 15:14:52.570 ,1,1,0.,12.0,0.,12.0,0.,12.0,0.,12.0
1979-03-02 15:15:04.570 ,2,1,0.,12.0,0.,12.0,0.,12.0,0.,12.0
1979-03-02 15:15:16.570 ,2,1,0.,12.0,0.,12.0,0.,12.0,0.,12.0
1979-03-02 15:15:28.570 ,3,1,,0,,0,,0,,0
1979-03-02 15:15:40.570 ,3,1,0.,12.0,0.,12.0,0.,12.0,0.,12.0
1979-03-02 15:15:52.570 ,4,1,0.,12.0,0.,12.0,0.,12.0,0.,12.0
1979-03-02 15:16:04.570 ,4,1,0.,12.0,0.,12.0,0.,12.0,0.,12.0
1979-03-02 15:16:16.570 ,5,1,,0,,0,,0,,0
1979-03-02 15:16:28.570 ,5,1,0.,12.0,0.,12.0,0.,12.0,0.,12.0
1979-03-02 15:16:40.570 ,6,1,0.,12.0,0.,12.0,0.,12.0,0.,12.0
1979-03-02 15:16:52.570 ,6,1,0.,12.0,0.,12.0,0.,12.0,0.,12.0
1979-03-02 15:17:04.570 ,7,1,0.,12.0,0.,12.0,0.,12.0,0.,12.0
1979-03-02 15:17:16.570 ,7,1,0.,12.0,0.,12.0,0.,12.0,0.,12.0
1979-03-02 15:17:28.570 ,7,1,0.,12.0,0.,12.0,0.,12.0,0.,12.0
1979-03-02 15:17:40.570 ,7,1,0.,12.0,0.,12.0,0.,12.0,0.,12.0
1979-03-02 15:17:52.570 ,6,1,0.,12.0,0.,12.0,0.,12.0,0.,12.0
1979-03-02 15:18:04.570 ,6,1,0.,12.0,0.,12.0,0.,12.0,0.,12.0
1979-03-02 15:18:16.570 ,6,0,0.,12.0,0.,12.0,0.,12.0,0.,12.0
1979-03-02 15:18:28.570 ,6,0,,0,,0,,0,,0
1979-03-02 15:18:40.570 ,4,1,0.,12.0,0.,12.0,0.,12.0,0.,12.0
1979-03-02 15:18:52.570 ,4,1,0.,12.0,0.,12.0,0.,12.0,0.,12.0
1979-03-02 15:19:04.570 ,3,1,0.,12.0,0.,12.0,0.,12.0,0.,12.0
1979-03-02 15:19:16.570 ,3,1,0.,12.0,0.,12.0,0.,12.0,0.,12.0
1979-03-02 15:19:28.570 ,0,0,,0,,0,,0,,0
1979-03-02 15:19:40.570 ,0,0,0.,12.0,0.,12.0,0.,12.0,0.,12.0
1979-03-02 15:19:52.570 ,0,0,0.,12.0,0.,12.0,0.,12.0,0.,12.0
1979-03-02 15:20:04.570 ,0,0,0.,12.0,0.,12.0,0.,12.0,0.,12.0
1979-03-02 15:20:16.570 ,0,1,0.,12.0,0.,12.0,0.,12.0,0.,12.0
1979-03-02 15:20:28.570 ,0,1,0.,12.0,0.,12.0,0.,12.0,0.,12.0
1979-03-02 15:20:40.570 ,0,1,0.,12.0,0.,12.0,0.,12.0,0.,12.0
1979-03-02 15:20:52.570 ,0,1,0.,12.0,0.,12.0,0.,12.0,0.,12.0
1979-03-02 15:21:04.570 ,1,1,0.,12.0,0.,12.0,0.,12.0,0.,12.0
1979-03-02 15:21:16.570 ,1,1,0.,12.0,0.,12.0,0.,12.0,0.,12.0
1979-03-02 15:21:28.570 ,2,1,0.,12.0,0.,12.0,0.,12.0,0.,12.0
1979-03-02 15:21:40.570 ,2,1,0.,12.0,0.,12.0,0.,12.0,0.,12.0
1979-03-02 15:21:52.570 ,3,1,0.,12.0,0.,12.0,0.,12.0,0.,12.0
1979-03-02 15:22:04.570 ,3,1,0.,12.0,0.,12.0,0.,12.0,0.,12.0
1979-03-02 15:22:16.570 ,4,1,0.,12.0,0.,12.0,0.,12.0,0.,12.0
1979-03-02 15:22:28.570 ,4,1,0.,12.0,0.,12.0,0.,12.0,0.,12.0
1979-03-02 15:22:40.570 ,5,1,0.,12.0,0.,12.0,0.,12.0,0.,12.0
1979-03-02 15:22:52.570 ,5,1,0.,12.0,0.,12.0,0.,12.0,0.,12.0
1979-03-02 15:23:04.570 ,6,1,0.,12.0,0.,12.0,0.,12.0,0.,12.0
1979-03-02 15:23:16.570 ,6,1,0.,12.0,0.,12.0,0.,12.0,0.,12.0
1979-03-02 15:23:28.570 ,7,1,0.,12.0,0.,12.0,0.,12.0,0.,12.0
1979-03-02 15:23:40.570 ,7,1,0.,12.0,0.,12.0,0.,12.0,0.,12.0
1979-03-02 15:23:52.570 ,7,1,0.,12.0,0.,12.0,0.,12.0,0.,12.0
1979-03-02 15:24:04.570 ,7,1,0.,12.0,0.,12.0,0.,12.0,0.,12.0
1979-03-02 15:24:16.570 ,6,1,0.,12.0,0.,12.0,0.,12.0,0.,12.0
1979-03-02 15:24:28.570 ,6,1,0.,12.0,0.,12.0,0.,12.0,0.,12.0
1979-03-02 15:24:40.570 ,5,1,0.,12.0,0.,12.0,0.,12.0,0.,12.0
1979-03-02 15:24:52.570 ,5,1,0.,12.0,0.,12.0,0.,12.0,0.,12.0
1979-03-02 15:25:04.570 ,4,1,0.,12.0,0.,12.0,0.,12.0,0.,12.0
1979-03-02 15:25:16.570 ,4,1,0.,12.0,0.,12.0,0.,12.0,0.,12.0
1979-03-02 15:25:28.570 ,3,1,0.,12.0,0.,12.0,0.,12.0,0.,12.0
1979-03-02 15:25:40.570 ,3,1,0.,12.0,0.,12.0,0.,12.0,0.,12.0
1979-03-02 15:25:52.570 ,2,1,0.,12.0,0.,12.0,0.,12.0,0.,12.0
1979-03-02 15:26:04.570 ,2,1,1.,12.0,0.,12.0,0.,12.0,0.,12.0
1979-03-02 15:26:16.570 ,1,1,0.,12.0,0.,12.0,0.,12.0,0.,12.0
1979-03-02 15:26:28.570 ,1,1,1.,12.0,0.,12.0,0.,12.0,0.,12.0
1979-03-02 15:26:40.570 ,0,1,1.,12.0,0.,12.0,0.,12.0,0.,12.0
1979-03-02 15:26:52.570 ,0,1,0.,12.0,0.,12.0,0.,12.0,0.,12.0
1979-03-02 15:27:04.570 ,0,1,0.,12.0,0.,12.0,0.,12.0,0.,12.0
1979-03-02 15:27:16.570 ,0,1,0.,12.0,0.,12.0,0.,12.0,0.,12.0
1979-03-02 15:27:28.570 ,1,1,0.,12.0,0.,12.0,0.,12.0,0.,12.0
1979-03-02 15:27:40.570 ,1,1,0.,12.0,0.,12.0,0.,12.0,0.,12.0
1979-03-02 15:27:52.570 ,2,1,0.,12.0,0.,12.0,0.,12.0,0.,12.0
1979-03-02 15:28:04.570 ,2,1,0.,12.0,0.,12.0,0.,12.0,0.,12.0
1979-03-02 15:28:16.570 ,3,1,0.,12.0,0.,12.0,0.,12.0,0.,12.0
1979-03-02 15:28:28.570 ,3,1,0.,12.0,0.,12.0,0.,12.0,0.,12.0
1979-03-02 15:28:40.570 ,4,1,0.,12.0,0.,12.0,0.,12.0,0.,12.0
1979-03-02 15:28:52.570 ,4,1,0.,12.0,0.,12.0,0.,12.0,0.,12.0
1979-03-02 15:29:04.570 ,5,1,1.,12.0,0.,12.0,0.,12.0,0.,12.0
1979-03-02 15:29:16.570 ,5,1,0.,12.0,0.,12.0,0.,12.0,0.,12.0
1979-03-02 15:29:28.570 ,6,1,0.,12.0,0.,12.0,0.,12.0,0.,12.0
1979-03-02 15:29:40.570 ,6,1,0.,12.0,0.,12.0,0.,12.0,0.,12.0
1979-03-02 15:29:52.570 ,7,1,0.,12.0,0.,12.0,0.,12.0,0.,12.0
1979-03-02 15:30:04.570 ,7,1,0.,12.0,0.,12.0,0.,12.0,0.,12.0
1979-03-02 15:30:16.570 ,7,1,,0,,0,,0,,0
1979-03-02 15:30:28.570 ,7,1,0.,12.0,0.,12.0,0.,12.0,0.,12.0
1979-03-02 15:30:40.570 ,6,1,,0,,0,,0,,0
1979-03-02 15:30:52.570 ,6,1,0.,12.0,0.,12.0,0.,12.0,0.,12.0
1979-03-02 15:31:28.570 ,0,0,0.,12.0,0.,12.0,0.,12.0,0.,12.0
1979-03-02 15:31:40.570 ,0,0,0.,12.0,0.,12.0,0.,12.0,0.,12.0
1979-03-02 15:31:52.570 ,4,0,0.,12.0,0.,12.0,0.,12.0,0.,12.0
1979-03-02 15:32:04.570 ,4,0,,0,,0,,0,,0
1979-03-02 15:32:16.570 ,3,0,0.,12.0,0.,12.0,0.,12.0,0.,12.0
1979-03-02 15:32:28.570 ,3,0,,0,,0,,0,,0
1979-03-02 15:32:40.570 ,1,1,0.,12.0,0.,12.0,0.,12.0,0.,12.0
1979-03-02 15:32:52.570 ,1,1,0.,12.0,0.,12.0,0.,12.0,0.,12.0
1979-03-02 15:33:04.570 ,0,1,0.,12.0,0.,12.0,0.,12.0,0.,12.0
1979-03-02 15:33:16.570 ,0,1,0.,12.0,0.,12.0,0.,12.0,0.,12.0
1979-03-02 15:33:28.570 ,0,0,0.,12.0,0.,12.0,0.,12.0,0.,12.0
1979-03-02 15:33:40.570 ,0,0,0.,12.0,0.,12.0,0.,12.0,0.,12.0
1979-03-02 15:33:52.570 ,1,1,0.,12.0,0.,12.0,0.,12.0,0.,12.0
1979-03-02 15:34:04.570 ,1,1,0.,12.0,0.,12.0,0.,12.0,0.,12.0
1979-03-02 15:34:16.570 ,2,1,0.,12.0,0.,12.0,0.,12.0,0.,12.0
1979-03-02 15:34:28.570 ,2,1,0.,12.0,0.,12.0,0.,12.0,0.,12.0
1979-03-02 15:34:40.570 ,3,1,0.,12.0,0.,12.0,0.,12.0,0.,12.0
1979-03-02 15:34:52.570 ,3,1,0.,12.0,0.,12.0,0.,12.0,0.,12.0
1979-03-02 15:35:04.570 ,4,1,0.,12.0,0.,12.0,0.,12.0,0.,12.0
1979-03-02 15:35:16.570 ,4,1,0.,12.0,0.,12.0,0.,12.0,0.,12.0
1979-03-02 15:35:28.570 ,5,1,0.,12.0,0.,12.0,0.,12.0,0.,12.0
1979-03-02 15:35:40.570 ,5,1,0.,12.0,0.,12.0,0.,12.0,0.,12.0
1979-03-02 15:35:52.570 ,6,1,0.,12.0,0.,12.0,0.,12.0,0.,12.0
1979-03-02 15:36:04.570 ,6,1,0.,12.0,0.,12.0,0.,12.0,0.,12.0
1979-03-02 15:36:16.570 ,7,1,0.,12.0,0.,12.0,0.,12.0,0.,12.0
1979-03-02 15:36:28.570 ,7,1,0.,12.0,0.,12.0,0.,12.0,0.,12.0
1979-03-02 15:36:40.570 ,7,1,0.,12.0,0.,12.0,0.,12.0,0.,12.0
1979-03-02 15:36:52.570 ,7,1,0.,12.0,0.,12.0,0.,12.0,0.,12.0
1979-03-02 15:37:04.570 ,6,1,0.,12.0,0.,12.0,0.,12.0,0.,12.0
1979-03-02 15:37:16.570 ,6,1,0.,12.0,0.,12.0,0.,12.0,0.,12.0
1979-03-02 15:37:28.570 ,5,1,0.,12.0,0.,12.0,0.,12.0,0.,12.0
1979-03-02 15:37:40.570 ,5,1,0.,12.0,0.,12.0,0.,12.0,0.,12.0
1979-03-02 15:37:52.570 ,4,1,0.,12.0,0.,12.0,0.,12.0,0.,12.0
1979-03-02 15:38:04.570 ,4,1,0.,12.0,0.,12.0,0.,12.0,0.,12.0
1979-03-02 15:38:16.570 ,3,1,0.,12.0,0.,12.0,0.,12.0,0.,12.0
1979-03-02 15:38:28.570 ,3,1,0.,12.0,0.,12.0,0.,12.0,0.,12.0
1979-03-02 15:38:40.570 ,2,1,0.,12.0,0.,12.0,0.,12.0,0.,12.0
1979-03-02 15:38:52.570 ,2,1,0.,12.0,0.,12.0,0.,12.0,0.,12.0
1979-03-02 15:39:04.570 ,1,1,0.,12.0,0.,12.0,0.,12.0,0.,12.0
1979-03-02 15:39:16.570 ,1,1,0.,12.0,0.,12.0,0.,12.0,1.,12.0
1979-03-02 15:39:28.570 ,0,1,0.,12.0,0.,12.0,0.,12.0,0.,12.0
1979-03-02 15:39:40.570 ,0,1,0.,12.0,0.,12.0,0.,12.0,0.,12.0
1979-03-02 15:39:52.570 ,0,1,0.,12.0,0.,12.0,0.,12.0,0.,12.0
1979-03-02 15:40:04.570 ,0,1,0.,12.0,0.,12.0,0.,12.0,0.,12.0
1979-03-02 15:40:16.570 ,1,1,0.,12.0,0.,12.0,0.,12.0,0.,12.0
1979-03-02 15:40:28.570 ,1,1,0.,12.0,0.,12.0,0.,12.0,0.,12.0
1979-03-02 15:40:40.570 ,2,1,0.,12.0,0.,12.0,0.,12.0,0.,12.0
1979-03-02 15:40:52.570 ,2,1,0.,12.0,0.,12.0,0.,12.0,0.,12.0
1979-03-02 15:41:04.570 ,3,1,0.,12.0,0.,12.0,0.,12.0,0.,12.0
1979-03-02 15:41:16.570 ,3,1,1.,12.0,0.,12.0,0.,12.0,0.,12.0
1979-03-02 15:41:28.570 ,4,1,1.,12.0,0.,12.0,0.,12.0,0.,12.0
1979-03-02 15:41:40.570 ,4,1,0.,12.0,0.,12.0,0.,12.0,0.,12.0
1979-03-02 15:41:52.570 ,5,1,0.,12.0,0.,12.0,0.,12.0,0.,12.0
1979-03-02 15:42:04.570 ,5,1,0.,12.0,0.,12.0,0.,12.0,0.,12.0
1979-03-02 15:42:16.570 ,6,1,0.,12.0,0.,12.0,0.,12.0,0.,12.0
1979-03-02 15:42:28.570 ,6,1,0.,12.0,0.,12.0,0.,12.0,0.,12.0
1979-03-02 15:42:40.570 ,7,1,0.,12.0,0.,12.0,0.,12.0,0.,12.0
1979-03-02 15:42:52.570 ,7,1,0.,12.0,0.,12.0,0.,12.0,0.,12.0
1979-03-02 15:43:04.570 ,7,1,0.,12.0,0.,12.0,0.,12.0,0.,12.0
1979-03-02 15:43:16.570 ,7,1,0.,12.0,0.,12.0,0.,12.0,0.,12.0
1979-03-02 15:43:28.570 ,7,0,0.,12.0,0.,12.0,0.,12.0,0.,12.0
1979-03-02 15:43:40.570 ,7,0,,0,,0,,0,,0
1979-03-02 15:43:52.570 ,5,1,0.,12.0,0.,12.0,0.,12.0,0.,12.0
1979-03-02 15:44:04.570 ,5,1,0.,12.0,0.,12.0,0.,12.0,0.,12.0
1979-03-02 15:44:16.570 ,5,0,0.,12.0,0.,12.0,0.,12.0,0.,12.0
1979-03-02 15:44:28.570 ,5,0,,0,,0,,0,,0
1979-03-02 15:44:40.570 ,3,1,0.,12.0,0.,12.0,0.,12.0,0.,12.0
1979-03-02 15:44:52.570 ,3,1,0.,12.0,0.,12.0,0.,12.0,0.,12.0
1979-03-02 15:45:04.570 ,2,1,,0,,0,,0,,0
1979-03-02 15:45:16.570 ,2,1,0.,12.0,0.,12.0,0.,12.0,0.,12.0
1979-03-02 15:45:28.570 ,1,1,0.,12.0,0.,12.0,0.,12.0,0.,12.0
1979-03-02 15:45:40.570 ,1,1,0.,12.0,0.,12.0,0.,12.0,0.,12.0
1979-03-02 15:45:52.570 ,0,1,0.,12.0,0.,12.0,0.,12.0,0.,12.0
1979-03-02 15:46:04.570 ,0,1,0.,12.0,0.,12.0,0.,12.0,0.,12.0
1979-03-02 15:46:16.570 ,0,1,0.,12.0,0.,12.0,0.,12.0,0.,12.0
1979-03-02 15:46:28.570 ,0,1,0.,12.0,0.,12.0,0.,12.0,0.,12.0
1979-03-02 15:46:40.570 ,1,1,0.,12.0,0.,12.0,0.,12.0,0.,12.0
1979-03-02 15:46:52.570 ,1,1,0.,12.0,0.,12.0,0.,12.0,1.,12.0
1979-03-02 15:47:04.570 ,2,1,0.,12.0,0.,12.0,0.,12.0,0.,12.0
1979-03-02 15:47:16.570 ,2,1,0.,12.0,0.,12.0,0.,12.0,0.,12.0
1979-03-02 15:47:28.570 ,3,1,0.,12.0,1.,12.0,0.,12.0,0.,12.0
1979-03-02 15:47:40.570 ,3,1,0.,12.0,0.,12.0,0.,12.0,0.,12.0
1979-03-02 15:47:52.570 ,4,1,0.,12.0,0.,12.0,0.,12.0,0.,12.0
1979-03-02 15:48:04.570 ,4,1,0.,12.0,0.,12.0,0.,12.0,0.,12.0
1979-03-02 15:48:16.570 ,5,1,0.,12.0,0.,12.0,0.,12.0,0.,12.0
1979-03-02 15:48:28.570 ,5,1,0.,12.0,0.,12.0,0.,12.0,0.,12.0
1979-03-02 15:48:40.570 ,6,1,0.,12.0,0.,12.0,0.,12.0,0.,12.0
1979-03-02 15:48:52.570 ,6,1,0.,12.0,0.,12.0,0.,12.0,0.,12.0
1979-03-02 15:49:04.570 ,7,1,0.,12.0,0.,12.0,0.,12.0,0.,12.0
1979-03-02 15:49:16.570 ,7,1,0.,12.0,0.,12.0,0.,12.0,0.,12.0
1979-03-02 15:49:28.570 ,7,1,0.,12.0,0.,12.0,0.,12.0,0.,12.0
1979-03-02 15:49:40.570 ,7,1,0.,12.0,0.,12.0,0.,12.0,0.,12.0
1979-03-02 15:49:52.570 ,6,1,0.,12.0,0.,12.0,0.,12.0,0.,12.0
1979-03-02 15:50:04.570 ,6,1,0.,12.0,0.,12.0,0.,12.0,0.,12.0
1979-03-02 15:50:16.570 ,5,1,0.,12.0,0.,12.0,0.,12.0,0.,12.0
1979-03-02 15:50:28.570 ,5,1,0.,12.0,0.,12.0,0.,12.0,0.,12.0
1979-03-02 15:50:40.570 ,4,1,0.,12.0,0.,12.0,0.,12.0,0.,12.0
1979-03-02 15:50:52.570 ,4,1,0.,12.0,0.,12.0,0.,12.0,0.,12.0
1979-03-02 15:51:04.570 ,3,1,0.,12.0,0.,12.0,0.,12.0,0.,12.0
1979-03-02 15:51:16.570 ,3,1,0.,12.0,0.,12.0,0.,12.0,0.,12.0
1979-03-02 15:51:28.570 ,2,1,0.,12.0,0.,12.0,0.,12.0,0.,12.0
1979-03-02 15:51:40.570 ,2,1,0.,12.0,0.,12.0,0.,12.0,0.,12.0
1979-03-02 15:51:52.570 ,1,1,0.,12.0,0.,12.0,0.,12.0,1.,12.0
1979-03-02 15:52:04.570 ,1,1,0.,12.0,0.,12.0,0.,12.0,0.,12.0
1979-03-02 15:52:16.570 ,0,1,0.,12.0,0.,12.0,0.,12.0,0.,12.0
1979-03-02 15:52:28.570 ,0,1,0.,12.0,0.,12.0,0.,12.0,0.,12.0
1979-03-02 15:52:40.570 ,0,1,0.,12.0,0.,12.0,0.,12.0,0.,12.0
1979-03-02 15:52:52.570 ,0,1,0.,12.0,0.,12.0,0.,12.0,0.,12.0
1979-03-02 15:53:04.570 ,1,1,0.,12.0,0.,12.0,0.,12.0,0.,12.0
1979-03-02 15:53:16.570 ,1,1,1.,12.0,0.,12.0,0.,12.0,0.,12.0
1979-03-02 15:53:28.570 ,2,1,0.,12.0,0.,12.0,0.,12.0,0.,12.0
1979-03-02 15:53:40.570 ,2,1,0.,12.0,0.,12.0,0.,12.0,0.,12.0
1979-03-02 15:53:52.570 ,3,1,0.,12.0,0.,12.0,0.,12.0,0.,12.0
1979-03-02 15:54:04.570 ,3,1,0.,12.0,0.,12.0,0.,12.0,0.,12.0
1979-03-02 15:54:16.570 ,4,1,0.,12.0,0.,12.0,0.,12.0,0.,12.0
1979-03-02 15:54:28.570 ,4,1,0.,12.0,0.,12.0,0.,12.0,0.,12.0
1979-03-02 15:54:40.570 ,5,1,0.,12.0,0.,12.0,0.,12.0,0.,12.0
1979-03-02 15:54:52.570 ,5,1,1.,12.0,0.,12.0,0.,12.0,0.,12.0
1979-03-02 15:55:04.570 ,6,1,0.,12.0,0.,12.0,0.,12.0,0.,12.0
1979-03-02 15:55:16.570 ,6,1,0.,12.0,0.,12.0,0.,12.0,0.,12.0
1979-03-02 15:55:28.570 ,0,0,0.,12.0,0.,12.0,0.,12.0,0.,12.0
1979-03-02 15:55:40.570 ,0,0,0.,12.0,0.,12.0,0.,12.0,0.,12.0
1979-03-02 15:55:53.170 ,7,1,0.,12.0,0.,12.0,0.,12.0,0.,12.0
1979-03-02 15:56:05.170 ,7,1,0.,12.0,0.,12.0,0.,12.0,0.,12.0
1979-03-02 15:56:16.570 ,6,1,0.,12.0,0.,12.0,0.,12.0,0.,12.0
1979-03-02 15:56:28.570 ,6,1,0.,12.0,0.,12.0,0.,12.0,0.,12.0
1979-03-02 15:56:40.570 ,5,1,0.,12.0,0.,12.0,0.,12.0,0.,12.0
1979-03-02 15:56:52.570 ,5,1,0.,12.0,0.,12.0,0.,12.0,1.,12.0
1979-03-02 15:57:04.570 ,4,1,0.,12.0,0.,12.0,0.,12.0,0.,12.0
1979-03-02 15:57:16.570 ,4,1,0.,12.0,0.,12.0,0.,12.0,0.,12.0
1979-03-02 15:57:28.570 ,3,1,0.,12.0,0.,12.0,0.,12.0,0.,12.0
1979-03-02 15:57:40.570 ,3,1,1.,12.0,0.,12.0,0.,12.0,0.,12.0
1979-03-02 15:57:52.570 ,2,1,0.,12.0,0.,12.0,0.,12.0,0.,12.0
1979-03-02 15:58:04.570 ,2,1,0.,12.0,0.,12.0,0.,12.0,0.,12.0
1979-03-02 15:58:16.570 ,1,1,0.,12.0,0.,12.0,0.,12.0,0.,12.0
1979-03-02 15:58:28.570 ,1,1,0.,12.0,0.,12.0,0.,12.0,0.,12.0
1979-03-02 15:58:40.570 ,0,1,0.,12.0,0.,12.0,0.,12.0,0.,12.0
1979-03-02 15:58:52.570 ,0,1,0.,12.0,0.,12.0,0.,12.0,0.,12.0
1979-03-02 15:59:04.570 ,0,1,0.,12.0,0.,12.0,0.,12.0,0.,12.0
1979-03-02 15:59:16.570 ,0,1,0.,12.0,0.,12.0,0.,12.0,0.,12.0
1979-03-02 15:59:28.570 ,1,1,0.,12.0,0.,12.0,0.,12.0,0.,12.0
1979-03-02 15:59:40.570 ,1,1,0.,12.0,0.,12.0,0.,12.0,0.,12.0
1979-03-02 15:59:52.570 ,2,1,0.,12.0,0.,12.0,0.,12.0,0.,12.0
1979-03-02 16:00:04.570 ,2,1,0.,12.0,0.,12.0,0.,12.0,0.,12.0
1979-03-02 16:00:16.570 ,3,1,0.,12.0,0.,12.0,0.,12.0,0.,12.0
1979-03-02 16:00:28.570 ,3,1,0.,12.0,0.,12.0,0.,12.0,0.,12.0
1979-03-02 16:00:40.570 ,4,1,0.,12.0,0.,12.0,0.,12.0,0.,12.0
1979-03-02 16:00:52.570 ,4,1,0.,12.0,0.,12.0,0.,12.0,0.,12.0
1979-03-02 16:01:04.570 ,5,1,0.,12.0,0.,12.0,0.,12.0,0.,12.0
1979-03-02 16:01:16.570 ,5,1,0.,12.0,0.,12.0,0.,12.0,0.,12.0
1979-03-02 16:01:28.570 ,6,1,0.,12.0,0.,12.0,0.,12.0,0.,12.0
1979-03-02 16:01:40.570 ,6,1,0.,12.0,0.,12.0,0.,12.0,0.,12.0
1979-03-02 16:01:52.570 ,7,1,0.,12.0,0.,12.0,0.,12.0,0.,12.0
1979-03-02 16:02:04.570 ,7,1,0.,12.0,0.,12.0,0.,12.0,0.,12.0
1979-03-02 16:02:16.570 ,7,1,0.,12.0,0.,12.0,0.,12.0,0.,12.0
1979-03-02 16:02:28.570 ,7,1,0.,12.0,0.,12.0,0.,12.0,0.,12.0
1979-03-02 16:02:40.570 ,6,1,0.,12.0,0.,12.0,0.,12.0,0.,12.0
1979-03-02 16:02:52.570 ,6,1,0.,12.0,0.,12.0,0.,12.0,0.,12.0
1979-03-02 16:03:04.570 ,5,1,0.,12.0,0.,12.0,0.,12.0,0.,12.0
1979-03-02 16:03:16.570 ,5,1,0.,12.0,0.,12.0,0.,12.0,0.,12.0
1979-03-02 16:03:28.570 ,4,1,0.,12.0,0.,12.0,0.,12.0,0.,12.0
1979-03-02 16:03:40.570 ,4,1,0.,12.0,0.,12.0,0.,12.0,0.,12.0
1979-03-02 16:03:52.570 ,3,1,0.,12.0,0.,12.0,0.,12.0,1.,12.0
1979-03-02 16:04:04.570 ,3,1,0.,12.0,0.,12.0,0.,12.0,0.,12.0
1979-03-02 16:04:16.570 ,2,1,0.,12.0,0.,12.0,0.,12.0,0.,12.0
1979-03-02 16:04:28.570 ,2,1,0.,12.0,1.,12.0,0.,12.0,0.,12.0
1979-03-02 16:04:40.570 ,1,1,0.,12.0,0.,12.0,0.,12.0,0.,12.0
1979-03-02 16:04:52.570 ,1,1,0.,12.0,0.,12.0,0.,12.0,0.,12.0
1979-03-02 16:05:04.570 ,0,1,0.,12.0,0.,12.0,0.,12.0,0.,12.0
1979-03-02 16:05:16.570 ,0,1,0.,12.0,0.,12.0,0.,12.0,0.,12.0
1979-03-02 16:05:28.570 ,0,1,0.,12.0,0.,12.0,0.,12.0,0.,12.0
1979-03-02 16:05:40.570 ,0,1,0.,12.0,0.,12.0,0.,12.0,0.,12.0
1979-03-02 16:05:52.570 ,1,1,1.,12.0,0.,12.0,0.,12.0,0.,12.0
1979-03-02 16:06:04.570 ,1,1,0.,12.0,0.,12.0,0.,12.0,0.,12.0
1979-03-02 16:06:16.570 ,2,1,1.,12.0,0.,12.0,0.,12.0,0.,12.0
1979-03-02 16:06:28.570 ,2,1,0.,12.0,0.,12.0,0.,12.0,0.,12.0
1979-03-02 16:06:40.570 ,3,1,1.,12.0,0.,12.0,0.,12.0,0.,12.0
1979-03-02 16:06:52.570 ,3,1,0.,12.0,0.,12.0,0.,12.0,0.,12.0
1979-03-02 16:07:04.570 ,3,0,0.,12.0,0.,12.0,0.,12.0,0.,12.0
1979-03-02 16:07:16.570 ,3,0,,0,,0,,0,,0
1979-03-02 16:07:28.570 ,5,1,0.,12.0,0.,12.0,0.,12.0,0.,12.0
1979-03-02 16:07:40.570 ,5,1,0.,12.0,0.,12.0,0.,12.0,0.,12.0
1979-03-02 16:07:52.570 ,6,1,0.,12.0,0.,12.0,0.,12.0,0.,12.0
1979-03-02 16:08:04.570 ,6,1,0.,12.0,0.,12.0,0.,12.0,0.,12.0
1979-03-02 16:08:16.570 ,7,1,0.,12.0,0.,12.0,0.,12.0,0.,12.0
1979-03-02 16:08:28.570 ,7,1,0.,12.0,0.,12.0,0.,12.0,0.,12.0
1979-03-02 16:08:40.570 ,7,1,0.,12.0,0.,12.0,0.,12.0,0.,12.0
1979-03-02 16:08:52.570 ,7,1,0.,12.0,0.,12.0,0.,12.0,0.,12.0
1979-03-02 16:09:04.570 ,6,1,0.,12.0,0.,12.0,0.,12.0,0.,12.0
1979-03-02 16:09:16.570 ,6,1,0.,12.0,0.,12.0,0.,12.0,0.,12.0
1979-03-02 16:09:28.570 ,5,1,0.,12.0,0.,12.0,0.,12.0,0.,12.0
1979-03-02 16:09:40.570 ,5,1,0.,12.0,0.,12.0,0.,12.0,0.,12.0
1979-03-02 16:09:52.570 ,4,1,0.,12.0,0.,12.0,0.,12.0,0.,12.0
1979-03-02 16:10:04.570 ,4,1,0.,12.0,0.,12.0,0.,12.0,0.,12.0
1979-03-02 16:10:16.570 ,3,1,0.,12.0,0.,12.0,0.,12.0,0.,12.0
1979-03-02 16:10:28.570 ,3,1,0.,12.0,0.,12.0,0.,12.0,0.,12.0
1979-03-02 16:10:40.570 ,0,0,1.,12.0,0.,12.0,0.,12.0,0.,12.0
1979-03-02 16:10:52.570 ,0,0,0.,12.0,0.,12.0,0.,12.0,0.,12.0
1979-03-02 16:11:04.570 ,0,0,0.,12.0,0.,12.0,0.,12.0,0.,12.0
1979-03-02 16:11:16.570 ,0,0,0.,12.0,0.,12.0,0.,12.0,0.,12.0
1979-03-02 16:11:28.570 ,0,1,0.,12.0,0.,12.0,0.,12.0,0.,12.0
1979-03-02 16:11:40.570 ,0,1,0.,12.0,0.,12.0,0.,12.0,0.,12.0
1979-03-02 16:11:52.570 ,0,1,0.,12.0,0.,12.0,0.,12.0,0.,12.0
1979-03-02 16:12:04.570 ,0,1,0.,12.0,0.,12.0,0.,12.0,0.,12.0
1979-03-02 16:12:16.570 ,0,0,1.,12.0,0.,12.0,0.,12.0,0.,12.0
1979-03-02 16:12:28.570 ,0,0,0.,12.0,0.,12.0,0.,12.0,0.,12.0
1979-03-02 16:12:50.770 ,0,0,,0,,0,,0,,0
1979-03-02 16:13:02.770 ,0,0,0.,12.0,0.,12.0,0.,12.0,0.,12.0
1979-03-02 16:13:04.570 ,3,1,0.,12.0,0.,12.0,0.,12.0,0.,12.0
1979-03-02 16:13:16.570 ,3,1,0.,12.0,0.,12.0,0.,12.0,0.,12.0
1979-03-02 16:13:28.570 ,4,1,0.,12.0,0.,12.0,0.,12.0,0.,12.0
1979-03-02 16:13:40.570 ,4,1,0.,12.0,0.,12.0,0.,12.0,0.,12.0
1979-03-02 16:13:52.570 ,5,1,0.,12.0,0.,12.0,0.,12.0,0.,12.0
1979-03-02 16:14:04.570 ,5,1,0.,12.0,0.,12.0,0.,12.0,0.,12.0
1979-03-02 16:14:16.570 ,6,1,0.,12.0,0.,12.0,0.,12.0,0.,12.0
1979-03-02 16:14:28.570 ,6,1,0.,12.0,0.,12.0,0.,12.0,0.,12.0
1979-03-02 16:14:40.570 ,7,1,0.,12.0,0.,12.0,0.,12.0,0.,12.0
1979-03-02 16:14:52.570 ,7,1,0.,12.0,0.,12.0,0.,12.0,0.,12.0
1979-03-02 16:15:04.570 ,7,1,0.,12.0,0.,12.0,0.,12.0,0.,12.0
1979-03-02 16:15:16.570 ,7,1,0.,12.0,0.,12.0,0.,12.0,0.,12.0
1979-03-02 16:15:28.570 ,6,1,0.,12.0,0.,12.0,0.,12.0,0.,12.0
1979-03-02 16:15:40.570 ,6,1,1.,12.0,0.,12.0,0.,12.0,0.,12.0
1979-03-02 16:15:52.570 ,5,1,0.,12.0,0.,12.0,0.,12.0,0.,12.0
1979-03-02 16:16:04.570 ,5,1,0.,12.0,0.,12.0,0.,12.0,0.,12.0
1979-03-02 16:16:16.570 ,4,1,0.,12.0,0.,12.0,0.,12.0,0.,12.0
1979-03-02 16:16:28.570 ,4,1,0.,12.0,0.,12.0,0.,12.0,0.,12.0
1979-03-02 16:16:40.570 ,3,1,0.,12.0,0.,12.0,0.,12.0,0.,12.0
1979-03-02 16:16:52.570 ,3,1,0.,12.0,0.,12.0,0.,12.0,0.,12.0
1979-03-02 16:17:04.570 ,2,1,0.,12.0,0.,12.0,0.,12.0,0.,12.0
1979-03-02 16:17:16.570 ,2,1,0.,12.0,0.,12.0,0.,12.0,0.,12.0
1979-03-02 16:17:28.570 ,1,1,0.,12.0,0.,12.0,0.,12.0,0.,12.0
1979-03-02 16:17:40.570 ,1,1,0.,12.0,0.,12.0,0.,12.0,0.,12.0
1979-03-02 16:17:52.570 ,0,1,0.,12.0,0.,12.0,0.,12.0,0.,12.0
1979-03-02 16:18:04.570 ,0,1,0.,12.0,0.,12.0,0.,12.0,0.,12.0
1979-03-02 16:18:16.570 ,0,1,0.,12.0,0.,12.0,0.,12.0,0.,12.0